,

(GMT )
Resolute CS

Weather History for CXRB - October, 2013

Change the Weather History Date:

Tuesday, October 1, 2013

  Actual Average Record
Temperature  
Mean Temperature 14 °F -  
Max Temperature 23 °F - - ()
Min Temperature 6 °F - - ()
Degree Days  
Heating Degree Days 50    
Moisture  
Dew Point 15 °F    
Average Humidity 92    
Maximum Humidity 96    
Minimum Humidity 81    
Precipitation  
Precipitation 0.00 in - - ()
Sea Level Pressure  
Sea Level Pressure 30.00 in    
Wind  
Wind Speed 8 mph ()    
Max Wind Speed 17 mph    
Max Gust Speed 23 mph    
T = Trace of Precipitation, MM = Missing Value Source: Averaged Metar Reports

Daily Weather History Graph

Daily Weather History Graph

Search for Another Location

Airport or City:

Trip Planner

Search our weather history database for the weather conditions in past years. The results will help you decide how hot, cold, wet, or windy it might be!

Date:

Astronomy

Oct. 01, 2013 Rise Set
Actual Time 6:46 AM MDT 5:29 PM MDT
Civil Twilight 5:27 AM MDT 6:48 PM MDT
Nautical Twilight 3:48 AM MDT 8:25 PM MDT
Astronomical Twilight 1:10 AM MDT 10:51 PM MDT
Moon 12:58 AM MDT (10/1) 5:20 PM MDT (10/1)
Length of Visible Light 13h 20m
Length of Day
10h 43m
Waning Crescent, 11% of the Moon is Illuminated
Oct 1
Waning Crescent
Oct 4
New
Oct 11
First Quarter
Oct 18
Full
Oct 26
Last Quarter

Hourly Weather History & Observations

Time (MDT) Temp. Windchill Dew Point Humidity Pressure Visibility Wind Dir Wind Speed Gust Speed Precip Events Conditions
12:00 AM 22 °F - 21 °F 95% 29.88 in - NNW 8.1 mph - -  
12:00 AM 22.3 °F 13.0 °F 21.2 °F 96% 29.88 in - NNW 8.1 mph - N/A   Unknown
1:00 AM 22.1 °F 12.0 °F 20.8 °F 95% 29.89 in - NNW 9.2 mph - N/A   Unknown
2:00 AM 19.6 °F 8.1 °F 18.3 °F 95% 29.90 in - North 10.4 mph - N/A   Unknown
3:00 AM 17.8 °F 12.5 °F 16.3 °F 94% 29.92 in - NW 3.5 mph - N/A   Unknown
4:00 AM 17.2 °F 7.8 °F 15.8 °F 94% 29.94 in - North 6.9 mph - N/A   Unknown
5:00 AM 18.7 °F 10.6 °F 17.2 °F 94% 29.95 in - North 5.8 mph - N/A   Unknown
6:00 AM 20 °F - 19 °F 92% 29.96 in - NW 3.5 mph - -  
6:00 AM 20.1 °F 15.2 °F 18.7 °F 94% 29.96 in - NW 3.5 mph - N/A   Unknown
7:00 AM 20.8 °F 14.4 °F 19.6 °F 95% 29.97 in - WNW 4.6 mph - N/A   Unknown
8:00 AM 21.6 °F 16.8 °F 20.3 °F 95% 29.97 in - NNW 3.5 mph - N/A   Unknown
9:00 AM 21.9 °F 14.5 °F 20.7 °F 95% 29.98 in - NNW 5.8 mph - N/A   Unknown
10:00 AM 22.6 °F 14.3 °F 21.6 °F 96% 29.98 in - NNW 6.9 mph - N/A   Unknown
11:00 AM 23.0 °F 13.9 °F 21.7 °F 95% 29.99 in - NNW 8.1 mph - N/A   Unknown
12:00 PM 23 °F - 22 °F 94% 29.99 in - NNW 11.5 mph - -  
12:00 PM 23.2 °F 12.0 °F 21.9 °F 95% 29.99 in - NNW 11.5 mph 18.4 mph N/A   Unknown
3:00 PM 14.7 °F -0.5 °F 11.1 °F 86% 30.04 in - NNW 15.0 mph 23.0 mph N/A   Unknown
4:00 PM 12.6 °F -2.7 °F 8.8 °F 85% 30.06 in - NNW 13.8 mph 20.7 mph N/A   Unknown
5:00 PM 11.1 °F -5.1 °F 8.2 °F 88% 30.07 in - North 15.0 mph - N/A   Unknown
6:00 PM 10 °F - 7 °F 81% 30.09 in - NNW 13.8 mph - -  
6:00 PM 10.0 °F -5.9 °F 6.8 °F 87% 30.09 in - NNW 13.8 mph 19.6 mph N/A   Unknown
7:00 PM 10.4 °F -7.2 °F 7.5 °F 88% 30.10 in - NNW 17.3 mph 23.0 mph N/A   Unknown
8:00 PM 9.9 °F -4.0 °F 7.3 °F 90% 30.10 in - NNW 10.4 mph - N/A   Unknown
9:00 PM 9.0 °F -7.9 °F 6.1 °F 88% 30.11 in - NNW 15.0 mph 21.9 mph N/A   Unknown
10:00 PM 6.8 °F -9.3 °F 3.9 °F 88% 30.12 in - North 12.7 mph - N/A   Unknown
11:00 PM 7.7 °F -8.9 °F 4.6 °F 87% 30.12 in - NNW 13.8 mph 20.7 mph N/A   Unknown